New Bern, NC

6:27 AM EST on December 16, 2019 (GMT -0500)
Craven County Regional

Weather History for KEWN - August, 2019

Change the Weather History Date:

Friday, August 23, 2019

  Actual Average Record
Temperature  
Mean Temperature 84 °F 79 °F  
Max Temperature 93 °F 87 °F 98 °F (2002)
Min Temperature 74 °F 70 °F 57 °F (1969)
Degree Days  
Heating Degree Days 0 0  
Month to date heating degree days 0 0  
Since 1 June heating degree days 0 1  
Since 1 July heating degree days 0 0  
Cooling Degree Days 18 14  
Month to date cooling degree days 378 335  
Year to date cooling degree days 1697 1425  
Since 1 June cooling degree days 1278 1182  
Growing Degree Days 34 (Base 50)    
Moisture  
Dew Point 76 °F    
Average Humidity 83    
Maximum Humidity 100    
Minimum Humidity 59    
Precipitation  
Precipitation T in 0.22 in 1.61 in (1974)
Month to date precipitation 5.50 5.04  
Year to date precipitation 28.44 35.19  
Snow  
Snow 0.00 in - - ()
Month to date snowfall 0.0  
Since 1 July snowfall 0.0  
Snow Depth 0.00 in    
Sea Level Pressure  
Sea Level Pressure 30.01 in    
Wind  
Wind Speed 7 mph ()    
Max Wind Speed 16 mph    
Max Gust Speed 22 mph    
Visibility 10.0 miles    
Events Rain , Thunderstorm    
T = Trace of Precipitation, MM = Missing Value Source: Averaged Metar Reports

Daily Weather History Graph

Daily Weather History Graph

Search for Another Location

Airport or City:

Astronomy

Aug. 23, 2019 Rise Set
Actual Time 6:33 AM EDT 7:47 PM EDT
Civil Twilight 6:07 AM EDT 8:13 PM EDT
Nautical Twilight 5:36 AM EDT 8:44 PM EDT
Astronomical Twilight 5:03 AM EDT 9:17 PM EDT
Moon No Moon Rise 1:51 PM EDT (8/23)
Length of Visible Light 14h 05m
Length of Day
13h 13m
Waning Gibbous, 50% of the Moon is Illuminated
Aug 23
Waning Gibbous
Aug 30
New
Sep 5
First Quarter
Sep 14
Full
Sep 21
Last Quarter

Hourly Weather History & Observations

Time (EDT) Temp. Heat Index Dew Point Humidity Pressure Visibility Wind Dir Wind Speed Gust Speed Precip Events Conditions
12:54 AM 75.0 °F - 73.9 °F 96% 30.04 in 10.0 mi SW 4.6 mph - 0.00 in   Clear
1:54 AM 75.0 °F - 75.0 °F 100% 30.03 in 10.0 mi SSW 4.6 mph - N/A   Clear
2:54 AM 77.0 °F - 75.0 °F 94% 30.03 in 10.0 mi SSW 6.9 mph - N/A   Clear
3:54 AM 75.9 °F - 75.0 °F 97% 30.02 in 10.0 mi SSW 5.8 mph - N/A   Clear
4:54 AM 77.0 °F - 75.9 °F 96% 30.03 in 10.0 mi SSW 8.1 mph - N/A   Clear
5:54 AM 75.9 °F - 75.9 °F 100% 30.04 in 10.0 mi SW 4.6 mph - N/A   Clear
6:54 AM 75.9 °F - 75.9 °F 100% 30.05 in 10.0 mi WSW 4.6 mph - N/A   Clear
7:54 AM 79.0 °F - 77.0 °F 94% 30.06 in 10.0 mi SW 5.8 mph - N/A   Clear
8:54 AM 81.0 °F 88.6 °F 78.1 °F 91% 30.07 in 10.0 mi WSW 12.7 mph - N/A   Mostly Cloudy
9:54 AM 84.0 °F 94.8 °F 78.1 °F 82% 30.06 in 10.0 mi West 10.4 mph - N/A   Partly Cloudy
10:54 AM 86.0 °F 96.0 °F 75.9 °F 72% 30.06 in 10.0 mi WSW 10.4 mph - N/A   Clear
11:54 AM 88.0 °F 97.5 °F 75.0 °F 65% 30.03 in 10.0 mi WSW 10.4 mph 18.4 mph N/A   Clear
12:54 PM 90.0 °F 102.5 °F 77.0 °F 65% 30.02 in 10.0 mi SSW 11.5 mph - N/A   Clear
1:54 PM 91.9 °F 105.9 °F 77.0 °F 62% 30.01 in 10.0 mi West 8.1 mph - N/A   Partly Cloudy
2:54 PM 93.0 °F 106.7 °F 77.0 °F 59% 29.99 in 10.0 mi SSW 10.4 mph - N/A   Scattered Clouds
3:50 PM 89.6 °F 104.7 °F 78.8 °F 70% 29.97 in 10.0 mi South 10.4 mph 20.7 mph N/A Thunderstorm Partly Cloudy
3:54 PM 88.0 °F 100.2 °F 77.0 °F 70% 29.96 in 10.0 mi South 11.5 mph 20.7 mph N/A Thunderstorm Partly Cloudy
4:22 PM 87.1 °F 98.8 °F 77.0 °F 72% 29.97 in 10.0 mi South 10.4 mph - N/A   Partly Cloudy
4:54 PM 88.0 °F 101.3 °F 78.1 °F 72% 29.96 in 10.0 mi South 10.4 mph - 0.00 in   Partly Cloudy
5:54 PM 86.0 °F 96.0 °F 75.9 °F 72% 29.96 in 10.0 mi SSW 12.7 mph 21.9 mph N/A   Clear
6:54 PM 82.9 °F 90.2 °F 75.0 °F 77% 29.96 in 10.0 mi SSW 12.7 mph - N/A   Clear
7:46 PM 82.0 °F 88.6 °F 75.0 °F 79% 29.99 in 10.0 mi SW 11.5 mph - N/A Thunderstorm Mostly Cloudy
7:54 PM 82.0 °F 88.6 °F 75.0 °F 79% 29.98 in 10.0 mi SSW 11.5 mph - N/A Thunderstorm Scattered Clouds
8:01 PM 82.0 °F 88.6 °F 75.0 °F 79% 29.97 in 10.0 mi SSW 12.7 mph - N/A   Scattered Clouds
8:19 PM 82.0 °F 88.6 °F 75.0 °F 79% 30.00 in 10.0 mi WSW 6.9 mph - N/A Thunderstorm Scattered Clouds
8:34 PM 81.0 °F 87.3 °F 75.9 °F 85% 30.01 in 10.0 mi West 3.5 mph - 0.00 in Rain Light Rain
8:42 PM 80.1 °F 85.4 °F 75.9 °F 87% 30.01 in 10.0 mi Variable 3.5 mph - 0.00 in Rain , Thunderstorm Light Thunderstorms and Rain
8:54 PM 80.1 °F 85.4 °F 75.9 °F 87% 30.00 in 10.0 mi WSW 3.5 mph - 0.00 in Rain Light Rain
9:54 PM 77.0 °F - 73.9 °F 90% 30.00 in 10.0 mi SW 4.6 mph - 0.00 in Rain Light Rain
10:54 PM 75.0 °F - 73.0 °F 94% 30.04 in 10.0 mi South 3.5 mph - 0.00 in   Clear
11:54 PM 75.0 °F - 73.0 °F 94% 30.05 in 10.0 mi NW 5.8 mph - 0.00 in   Mostly Cloudy